Regional Weather Roundup
Issued by NWS Newport/Morehead, NC

Current Version | Previous Version | Graphics & Text | Print | Product List | Glossary Off
Versions: 1 2 3 4 5 6 7 8 9 10 11 12 13 14 15 16 17 18 19 20 21 22 23 24 25 26 27 28 29 30 31 32 33 34 35 36 37 38 39 40 41 42 43 44 45 46 47 48 49 50

000
ASUS42 KMHX 280214
RWRMHX
WEATHER ROUNDUP FOR EASTERN NORTH CAROLINA
NATIONAL WEATHER SERVICE NEWPORT/MOREHEAD CITY NC
1000 PM EDT TUE JUN 27 2017

NOTE: "FAIR" INDICATES FEW OR NO CLOUDS BELOW 12,000 FEET
WITH NO SIGNIFICANT WEATHER AND/OR OBSTRUCTIONS TO VISIBILITY

NCZ015>017-031-032-045>047-102-103-280300-
NORTH COAST

CITY           SKY/WX    TMP DP  RH WIND       PRES   REMARKS
EDENTON        CLEAR     73  60  63 CALM      30.03R
ELIZABETH CITY CLEAR     73  67  81 N3        30.03R
KITTY HAWK     MOCLDY    71  67  88 CALM      30.01R
MANTEO         MOCLDY    70  67  90 N5        30.02R

$$

NCZ045>047-081-094-103-104-280300-
CENTRAL COAST

CITY           SKY/WX    TMP DP  RH WIND       PRES   REMARKS
FRISCO         NOT AVBL

$$

NCZ095-097-098-100-101-280300-
SOUTHERN COAST

CITY           SKY/WX    TMP DP  RH WIND       PRES   REMARKS
BEAUFORT       PTCLDY    78  67  68 W6        30.02R
CEDAR ISLAND   NOT AVBL
JACKSONVILLE   CLOUDY    75  68  78 W5        30.03R
PINEY ISLAND   PTCLDY   N/A N/A N/A W5        30.02R
WILMINGTON     MOCLDY    76  67  73 W5        30.03R


$$

NCZ011>013-027>030-043-044-078>080-089-090>093-098-280300-
COASTAL PLAIN

CITY           SKY/WX    TMP DP  RH WIND       PRES   REMARKS
AHOSKIE          N/A     67  56  67 CALM      30.04R
CLINTON        CLEAR     71  66  84 CALM      30.05R
ELIZABETHTOWN  NOT AVBL
GOLDSBORO      CLEAR     75  57  53 N7        30.04R
GREENVILLE     CLEAR     72  59  64 N3        30.06R
HAVELOCK       CLOUDY    74  67  78 SW3       30.04R
KENANSVILLE    CLOUDY    72  63  73 NW7       30.05R
KINSTON        CLEAR     70  61  73 NW3       30.05R
NEW BERN       PTCLDY    73  68  84 CALM      30.04R
RICHLANDS      CLOUDY    72  68  87 CALM      30.04R
ROCKY MOUNT    CLEAR     67  59  75 CALM      30.05R
WASHINGTON     CLEAR    N/A N/A N/A NW3       30.03R
WHITEVILLE     CLOUDY    75  69  79 CALM      30.03R

$$

AMZ130-135-150-152-154-156-158-170-250-252-270-ANZ085-086-088-633-658-670-280300-
MARINE OBSERVATIONS

STATION/POSITION TIME  TEMP    WIND        PRES    WAVE   SWELL
                       AIR SEA DIR/SP/G            HT/PER HT/PER
                 (UTC) (F)     (DEG/KT/KT) (MB)    (FT/S) (FT/S)
CHESAPEAKE LIGHT NOT AVBL
64 E VA BEACH    0150   72 75  290/  4/  6 1017.0    1/ 8   2/ 8
DUCK             0142   73 75   70/  9/ 10 1015.9
2 E DUCK         NOT AVBL
OREGON INLET     0142   75 80  260/  1/  2 1015.7
13E OREGON INLT  0148      74                N/A     2/10   2/10
HATTERAS CG      0142   77 80  250/  5/  7 1016.1
DIAMOND BUOY     0150   80 82  260/  8/  8 1016.0    2/ 8   2/ 8
CAPE LOOKOUT     0200   78     250/  4/  5 1016.4
BEAUFORT LAB     0142   78 80  240/  2/  5 1015.7
30 SE NEW RVR IN 0108   80 81  220/  6/  8 1016.1
30 SE NEW RVR IN 0143      81                N/A     2/ 7
27 SE WRIGHTSVLE 0108   80 81  200/  6/  8 1015.7
5 SE WRIGHTSVLE  0108   80 80  230/  6/  8 1015.9
225 S CAPE HAT   0150   78 80  250/  4/  6 1016.5    3/ 6   3/ 6
41 SE CHARLESTON 0200   80 81  100/  6/  8 1016.4

$$




USA.gov is the U.S. government's official web portal to all federal, state and local government web resources and services.